Location: Blue Sky Observatory
(43.1153°N, 70.9036°W)
Time: 12:03:19
(UTC-04:00)

Amateur Radio Satellites - All Passes

Search period start: 29 June 2017 11:33
Search period end: 30 June 2017 11:33
Location: Blue Sky Observatory, 43.1153°N, 70.9036°W

Satellite Date Start Highest point End Downlink Frequencies (MHz)
Time Altitude Azimuth
Oscar 19 29 Jun 11:39:59 11:41:22 11° 56° (NE) 11:42:45 437.125/150
EO-79 29 Jun 11:43:16 11:47:31 87° 77° (ENE) 11:51:50 145.935-145.965
ISS 29 Jun 11:44:35 11:47:18 23° 14° (NNE) 11:50:02 437.550
DUCHIFAT 1 29 Jun 11:52:03 11:56:17 87° 77° (ENE) 12:00:35 145.980
ESTCUBE 1 29 Jun 11:53:30 11:57:47 43° 99° (E) 12:02:03 437.505/2401.250
NANOSAT C BR1 29 Jun 12:03:03 12:07:15 63° 259° (W) 12:11:30 145.865
Tancredo 1 29 Jun 12:10:29 12:13:25 43° 27° (NNE) 12:16:20 437.200
AIST 2D 29 Jun 12:18:30 12:20:31 14° 268° (W) 12:22:34 435.315
LO-87 29 Jun 12:23:10 12:26:37 41° 288° (WNW) 12:30:03 145.935 - 145.965
SO-50 29 Jun 12:26:05 12:29:06 18° 111° (ESE) 12:32:07 436.795
AO-7 29 Jun 12:27:54 12:28:46 10° 37° (NE) 12:29:37 .
BUGSAT 1 29 Jun 12:44:46 12:48:55 81° 256° (WSW) 12:53:10 437.445
POLYITAN 1 29 Jun 12:46:14 12:49:25 20° 267° (W) 12:52:38 437.675
PCSat 29 Jun 12:48:51 12:53:28 28° 313° (NW) 12:58:08 145.827
QB50P2 29 Jun 12:58:23 13:00:42 14° 269° (W) 13:03:01 145.880/145.840
SPROUT 29 Jun 13:00:45 13:05:02 60° 101° (E) 13:09:16 437.525
Gurwin Techsat 1B 29 Jun 13:03:36 13:08:30 39° 68° (ENE) 13:13:26 435.225
50 SAT 29 Jun 13:07:24 13:10:19 26° 97° (E) 13:13:13 437.505
VELOX 1 29 Jun 13:12:29 13:16:56 71° 102° (ESE) 13:21:22 145.980
Oscar 19 29 Jun 13:14:40 13:19:48 77° 74° (ENE) 13:24:57 437.125/150
DX 1 29 Jun 13:18:26 13:22:08 26° 96° (E) 13:25:50 434.975-435.025
ISS 29 Jun 13:20:50 13:24:08 88° 25° (NNE) 13:27:26 437.550
UKube-1 29 Jun 13:26:49 13:30:11 22° 94° (E) 13:33:32 .
ESTCUBE 1 29 Jun 13:31:02 13:34:17 20° 296° (WNW) 13:37:31 437.505/2401.250
Tancredo 1 29 Jun 13:46:20 13:48:50 23° 224° (SW) 13:51:19 437.200
ITAMSAT 1 29 Jun 14:03:22 14:07:03 20° 61° (ENE) 14:10:46 435.822/435.867
SO-50 29 Jun 14:04:40 14:09:08 56° 308° (NW) 14:13:37 436.795
AO-7 29 Jun 14:11:39 14:19:15 41° 59° (ENE) 14:26:53 .
SPROUT 29 Jun 14:38:09 14:40:26 14° 298° (WNW) 14:42:41 437.525
50 SAT 29 Jun 14:40:31 14:42:56 18° 292° (WNW) 14:45:21 437.505
Gurwin Techsat 1B 29 Jun 14:44:01 14:48:32 28° 265° (W) 14:53:04 435.225
ITUPSAT 1 29 Jun 14:50:40 14:53:51 17° 92° (E) 14:57:00 437.325
VELOX 1 29 Jun 14:50:47 14:52:48 13° 299° (WNW) 14:54:50 145.980
DX 1 29 Jun 14:54:29 14:58:17 30° 292° (WNW) 15:02:06 434.975-435.025
Oscar 19 29 Jun 14:57:18 14:59:41 13° 271° (W) 15:02:06 437.125/150
BEESAT 29 Jun 14:57:19 15:00:55 21° 93° (E) 15:04:28 436.000
ISS 29 Jun 14:58:51 15:00:10 12° 230° (SW) 15:01:28 437.550
UKube-1 29 Jun 15:02:20 15:06:17 35° 291° (WNW) 15:10:12 .
MOZHAYETS 4 29 Jun 15:26:05 15:29:59 27° 95° (E) 15:33:49
ITAMSAT 1 29 Jun 15:40:57 15:46:04 58° 259° (W) 15:51:14 435.822/435.867
SO-50 29 Jun 15:49:03 15:50:35 11° 329° (NNW) 15:52:08 436.795
AO-7 29 Jun 16:03:51 16:11:50 50° 259° (W) 16:19:55 .
CUBESAT XI-V 29 Jun 16:19:22 16:22:36 19° 92° (E) 16:25:49 437.345
ITUPSAT 1 29 Jun 16:27:19 16:31:59 53° 289° (WNW) 16:36:36 437.325
KKS-1 29 Jun 16:28:29 16:30:56 14° 91° (E) 16:33:23 437.445
BEESAT 29 Jun 16:34:20 16:38:53 44° 290° (WNW) 16:43:23 436.000
DOVE 4 29 Jun 16:48:02 16:51:40 29° 68° (ENE) 16:55:28 437.250
XW-2C 29 Jun 16:49:27 16:51:04 12° 64° (ENE) 16:52:40 145.795 - 145.815
KAITUO 1B 29 Jun 16:53:39 16:53:57 10° 62° (ENE) 16:54:15 145.475/437.950
MOZHAYETS 4 29 Jun 17:03:05 17:07:08 32° 292° (WNW) 17:11:09
CUTE-I 29 Jun 17:17:06 17:21:42 31° 65° (ENE) 17:26:22 437.470
NUDT-PHONESAT 29 Jun 17:20:02 17:22:50 20° 68° (ENE) 17:25:37 437.300
HO-68 29 Jun 17:20:19 17:24:46 18° 52° (NE) 17:29:14 435.675
XW-2F 29 Jun 17:48:53 17:52:37 55° 74° (ENE) 17:56:21 145.980 - 146.000
CUBESAT XI-V 29 Jun 17:55:48 18:00:11 45° 289° (WNW) 18:04:34 437.345
XW-2D 29 Jun 17:56:03 17:59:53 75° 76° (ENE) 18:03:42 145.860 - 145.880
KKS-1 29 Jun 18:03:26 18:07:50 57° 288° (WNW) 18:12:14 437.445
XW-2B 29 Jun 18:05:11 18:09:01 88° 258° (WSW) 18:12:52 145.730 - 145.750
PCSat 29 Jun 18:09:57 18:11:56 12° 32° (NNE) 18:13:54 145.827
LilacSat-2 29 Jun 18:10:00 18:13:51 71° 258° (WSW) 18:17:42 437.200
STARS 29 Jun 18:20:10 18:24:38 88° 284° (WNW) 18:29:03 437.465
XW-2C 29 Jun 18:21:01 18:24:47 54° 260° (W) 18:28:34 145.795 - 145.815
KAITUO 1B 29 Jun 18:23:40 18:27:25 66° 259° (W) 18:31:10 145.475/437.950
CUBEBUG 2 29 Jun 18:24:44 18:27:29 16° 62° (ENE) 18:30:16 437.445
DOVE 4 29 Jun 18:25:54 18:29:23 25° 266° (W) 18:32:59 437.250
XW-2A 29 Jun 18:32:04 18:34:24 17° 67° (ENE) 18:36:45 145.665 - 145.685
SEEDS 29 Jun 18:35:06 18:38:12 20° 66° (ENE) 18:41:18 437.485
STRAND 1 29 Jun 18:45:15 18:45:53 10° 87° (E) 18:46:31 437.568
RS-15 29 Jun 18:46:27 18:55:30 26° 100° (E) 19:04:38 29.354- 29.394
UWE-3 29 Jun 18:48:34 18:51:27 17° 63° (ENE) 18:54:21 435.000/436.395/437.385
NUDT-PHONESAT 29 Jun 18:53:15 18:56:33 29° 264° (W) 18:59:51 437.300
CUTE-I 29 Jun 18:56:44 19:01:38 37° 263° (W) 19:06:35 437.470
CUTE 1.7 + AOD 2 29 Jun 19:00:12 19:04:22 59° 74° (ENE) 19:08:32 437.475
HO-68 29 Jun 19:04:14 19:11:26 81° 72° (ENE) 19:18:40 435.675
AAUSAT CUBESAT 2 29 Jun 19:11:55 19:15:12 24° 68° (ENE) 19:18:29 437.432
XW-2F 29 Jun 19:26:06 19:27:04 11° 270° (W) 19:28:02 145.980 - 146.000
AO-73 29 Jun 19:30:31 19:34:01 22° 66° (ENE) 19:37:31 145.935
AO-85 29 Jun 19:39:46 19:43:48 69° 121° (ESE) 19:47:43 145.980
BEESAT 2 29 Jun 19:42:09 19:44:34 16° 110° (ESE) 19:47:00 435.950
PCSat 29 Jun 19:51:21 19:56:40 51° 55° (NE) 20:01:55 145.827
Oscar 11 29 Jun 19:51:55 19:55:31 26° 68° (ENE) 19:59:08 .
CUBEBUG 2 29 Jun 19:58:56 20:03:32 64° 260° (W) 20:08:16 437.445
STARS 29 Jun 19:59:47 20:00:13 10° 302° (WNW) 20:00:39 437.465
XW-2A 29 Jun 20:03:56 20:06:56 28° 264° (W) 20:09:58 145.665 - 145.685
ZACube-1 29 Jun 20:07:13 20:11:40 55° 73° (ENE) 20:16:11 437.345
BEESAT 3 29 Jun 20:08:06 20:12:04 85° 124° (SE) 20:16:08 437.485
YUBILEINY 29 Jun 20:08:12 20:14:08 21° 77° (ENE) 20:20:04 435.215
SEEDS 29 Jun 20:09:48 20:13:39 36° 263° (W) 20:17:32 437.485
STRAND 1 29 Jun 20:20:36 20:25:48 86° 104° (ESE) 20:30:56 437.568
UWE-3 29 Jun 20:22:49 20:27:23 59° 260° (W) 20:32:02 435.000/436.395/437.385
O/OREOS (USA 219) 29 Jun 20:28:57 20:33:14 43° 107° (ESE) 20:37:31 437.305
NO-84 29 Jun 20:38:07 20:41:55 78° 137° (SE) 20:46:03 435.350 FM
CUTE 1.7 + AOD 2 29 Jun 20:38:45 20:40:34 12° 270° (W) 20:42:23 437.475
AAUSAT CUBESAT 2 29 Jun 20:46:55 20:50:31 29° 264° (W) 20:54:09 437.432
RS-15 29 Jun 20:54:07 21:06:20 89° 117° (ESE) 21:18:48 29.354- 29.394
SO-50 29 Jun 20:54:58 20:58:41 24° 43° (NE) 21:02:25 436.795
HO-68 29 Jun 20:55:02 20:59:54 19° 270° (W) 21:04:50 435.675
AO-73 29 Jun 21:05:40 21:09:58 40° 263° (W) 21:14:18 145.935
BEESAT 2 29 Jun 21:18:00 21:21:54 51° 308° (NW) 21:25:52 435.950
FO-29 29 Jun 21:18:49 21:25:08 26° 89° (E) 21:31:15 435.910
EO-88 29 Jun 21:19:27 21:22:51 37° 72° (ENE) 21:26:16 145.990 - 145.960
AO-85 29 Jun 21:22:14 21:24:36 15° 320° (NW) 21:26:57 145.980
Oscar 11 29 Jun 21:27:45 21:31:34 29° 264° (W) 21:35:22 .
UNISAT 6 29 Jun 21:28:27 21:30:08 12° 88° (E) 21:31:49 437.425
DELFI C3 29 Jun 21:30:04 21:33:58 81° 75° (ENE) 21:37:53 145.870
PCSat 29 Jun 21:35:24 21:39:43 24° 252° (WSW) 21:44:00 145.827
M-CUBED/EXP-1 PRIME 29 Jun 21:35:45 21:37:51 14° 99° (E) 21:39:59 437.505
ZACube-1 29 Jun 21:45:32 21:48:16 16° 270° (W) 21:51:02 437.345
BEESAT 3 29 Jun 21:48:04 21:50:13 14° 322° (NW) 21:52:24 437.485
YUBILEINY 29 Jun 22:00:54 22:09:44 85° 279° (W) 22:18:39 435.215
STRAND 1 29 Jun 22:01:45 22:04:14 14° 302° (WNW) 22:06:44 437.568
O/OREOS (USA 219) 29 Jun 22:09:20 22:12:50 21° 305° (NW) 22:16:20 437.305
NO-84 29 Jun 22:16:31 22:19:55 25° 339° (NNW) 22:23:29 435.350 FM
TIGRISAT 29 Jun 22:19:22 22:23:40 37° 97° (E) 22:27:51 435.000
PRISM 29 Jun 22:21:20 22:25:12 38° 98° (E) 22:29:04 437.425
SO-50 29 Jun 22:35:00 22:39:22 47° 241° (WSW) 22:43:44 436.795
ESTCUBE 1 29 Jun 22:53:41 22:57:56 44° 71° (ENE) 23:02:13 437.505/2401.250
EO-88 29 Jun 22:54:36 22:56:41 14° 268° (W) 22:58:46 145.990 - 145.960
LO-87 29 Jun 22:59:30 23:03:03 86° 78° (ENE) 23:06:40 145.935 - 145.965
UNISAT 6 29 Jun 23:02:45 23:07:23 72° 285° (WNW) 23:11:53 437.425
FO-29 29 Jun 23:02:51 23:10:42 72° 288° (WNW) 23:18:19 435.910
M-CUBED/EXP-1 PRIME 29 Jun 23:08:43 23:12:26 51° 292° (WNW) 23:16:27 437.505
RS-15 29 Jun 23:09:27 23:20:36 37° 329° (NNW) 23:31:48 29.354- 29.394
EO-79 29 Jun 23:28:36 23:30:38 13° 90° (E) 23:32:40 145.935-145.965
DUCHIFAT 1 29 Jun 23:36:45 23:38:43 13° 90° (E) 23:40:40 145.980
AIST 2D 29 Jun 23:40:54 23:44:10 36° 98° (E) 23:47:23 435.315
50 SAT 29 Jun 23:41:36 23:42:56 12° 64° (ENE) 23:44:16 437.505
NANOSAT C BR1 29 Jun 23:47:04 23:50:08 19° 93° (E) 23:53:11 145.865
SPROUT 29 Jun 23:54:36 23:58:44 50° 72° (ENE) 00:02:55 437.525
NO-84 29 Jun 23:55:57 23:58:40 16° 360° (N) 00:01:28 435.350 FM
TIGRISAT 29 Jun 23:56:27 00:00:07 24° 294° (WNW) 00:03:43 435.000
PRISM 29 Jun 23:57:17 00:00:13 19° 295° (WNW) 00:03:08 437.425
YUBILEINY 30 Jun 00:02:01 00:07:58 19° 300° (WNW) 00:13:58 435.215
VELOX 1 30 Jun 00:10:18 00:14:38 70° 74° (ENE) 00:19:01 145.980
DX 1 30 Jun 00:14:53 00:18:29 26° 67° (ENE) 00:22:06 434.975-435.025
UKube-1 30 Jun 00:22:16 00:25:33 22° 65° (ENE) 00:28:51 .
BUGSAT 1 30 Jun 00:26:59 00:29:13 14° 91° (E) 00:31:24 437.445
POLYITAN 1 30 Jun 00:28:37 00:32:52 60° 101° (E) 00:37:04 437.675
ESTCUBE 1 30 Jun 00:31:48 00:34:57 18° 268° (W) 00:38:05 437.505/2401.250
QB50P2 30 Jun 00:39:44 00:44:03 88° 106° (ESE) 00:48:17 145.880/145.840
FO-29 30 Jun 00:49:41 00:54:23 18° 307° (NW) 00:59:04 435.910
EO-79 30 Jun 01:02:33 01:06:46 57° 286° (WNW) 01:10:55 145.935-145.965
DUCHIFAT 1 30 Jun 01:10:33 01:14:44 57° 287° (WNW) 01:18:53 145.980
50 SAT 30 Jun 01:12:09 01:15:20 41° 261° (W) 01:18:34 437.505
AIST 2D 30 Jun 01:15:09 01:17:03 14° 294° (WNW) 01:18:57 435.315
Gurwin Techsat 1B 30 Jun 01:20:14 01:22:55 14° 89° (E) 01:25:35 435.225
NANOSAT C BR1 30 Jun 01:22:01 01:25:59 38° 289° (WNW) 01:29:55 145.865
Oscar 19 30 Jun 01:25:48 01:29:57 24° 94° (E) 01:34:05 437.125/150
RS-15 30 Jun 01:28:07 01:37:59 26° 4° (N) 01:47:39 29.354- 29.394
SPROUT 30 Jun 01:32:27 01:34:56 15° 269° (W) 01:37:25 437.525
NO-84 30 Jun 01:33:53 01:37:28 25° 21° (NNE) 01:41:06 435.350 FM
VELOX 1 30 Jun 01:50:12 01:51:34 11° 271° (W) 01:52:56 145.980
DX 1 30 Jun 01:50:47 01:54:34 29° 264° (W) 01:58:22 434.975-435.025
UKube-1 30 Jun 01:57:24 02:01:21 36° 262° (W) 02:05:21 .
ITUPSAT 1 30 Jun 01:58:04 02:01:53 24° 65° (ENE) 02:05:43 437.325
BUGSAT 1 30 Jun 02:00:44 02:04:53 53° 287° (WNW) 02:08:59 437.445
BEESAT 30 Jun 02:04:25 02:08:27 28° 66° (ENE) 02:12:30 436.000
POLYITAN 1 30 Jun 02:05:56 02:08:08 14° 298° (WNW) 02:10:20 437.675
MOZHAYETS 4 30 Jun 02:28:42 02:32:42 29° 68° (ENE) 02:36:42
AO-85 30 Jun 02:30:49 02:32:29 12° 37° (NE) 02:34:10 145.980
BEESAT 3 30 Jun 02:48:33 02:49:37 11° 34° (NE) 02:50:40 437.485
Gurwin Techsat 1B 30 Jun 02:58:06 03:03:26 77° 286° (WNW) 03:08:45 435.225
Oscar 19 30 Jun 03:04:37 03:09:25 42° 291° (WNW) 03:14:13 437.125/150
NO-84 30 Jun 03:11:11 03:15:35 86° 38° (NE) 03:19:56 435.350 FM
CUBESAT XI-V 30 Jun 03:23:36 03:27:05 21° 65° (ENE) 03:30:32 437.345
KKS-1 30 Jun 03:27:35 03:30:17 16° 62° (ENE) 03:33:01 437.445
ITUPSAT 1 30 Jun 03:34:58 03:39:28 40° 261° (W) 03:44:02 437.325
BEESAT 30 Jun 03:41:45 03:46:05 34° 263° (W) 03:50:27 436.000
RS-15 30 Jun 03:43:14 03:54:51 44° 37° (NE) 04:05:54 29.354- 29.394
STARS 30 Jun 03:45:15 03:46:00 10° 59° (ENE) 03:46:47 437.465
ITAMSAT 1 30 Jun 03:52:43 03:57:46 45° 99° (E) 04:02:46 435.822/435.867
BEESAT 2 30 Jun 03:57:46 04:00:30 17° 41° (NE) 04:03:13 435.950
AO-7 30 Jun 04:03:49 04:12:01 55° 102° (ESE) 04:20:10 .
MOZHAYETS 4 30 Jun 04:05:44 04:09:47 30° 264° (W) 04:13:52
AO-85 30 Jun 04:09:24 04:13:30 77° 55° (NE) 04:17:54 145.980
BEESAT 3 30 Jun 04:23:59 04:27:59 66° 54° (NE) 04:31:55 437.485
Gurwin Techsat 1B 30 Jun 04:40:43 04:42:29 12° 304° (NW) 04:44:15 435.225
NO-84 30 Jun 04:50:05 04:52:39 15° 237° (WSW) 04:55:11 435.350 FM
CUBESAT XI-V 30 Jun 04:59:47 05:04:10 42° 262° (W) 05:08:33 437.345
O/OREOS (USA 219) 30 Jun 05:00:11 05:02:11 13° 49° (NE) 05:04:12 437.305
KKS-1 30 Jun 05:02:04 05:06:24 55° 259° (W) 05:10:47 437.445
STARS 30 Jun 05:17:14 05:21:37 89° 266° (W) 05:26:04 437.465
ITAMSAT 1 30 Jun 05:32:45 05:36:57 25° 297° (WNW) 05:41:07 435.822/435.867
BEESAT 2 30 Jun 05:34:38 05:38:40 64° 240° (WSW) 05:42:39 435.950
CUTE-I 30 Jun 05:36:02 05:36:39 10° 87° (E) 05:37:16 437.470
LilacSat-2 30 Jun 05:44:25 05:45:31 11° 90° (E) 05:46:36 437.200
AO-85 30 Jun 05:52:06 05:53:24 11° 250° (WSW) 05:54:42 145.980
XW-2C 30 Jun 05:53:54 05:55:54 14° 91° (E) 05:57:52 145.795 - 145.815
KAITUO 1B 30 Jun 05:56:09 05:57:02 11° 90° (E) 05:57:54 145.475/437.950
RS-15 30 Jun 05:56:12 06:08:13 70° 244° (WSW) 06:19:36 29.354- 29.394
AO-7 30 Jun 05:57:00 06:04:29 38° 302° (WNW) 06:11:57 .
STRAND 1 30 Jun 06:00:20 06:03:50 19° 61° (ENE) 06:07:20 437.568
ISS 30 Jun 06:02:31 06:04:32 15° 132° (SE) 06:06:34 437.550
BEESAT 3 30 Jun 06:03:31 06:05:00 12° 251° (WSW) 06:06:28 437.485
Tancredo 1 30 Jun 06:16:35 06:19:27 41° 141° (SE) 06:22:20 437.200
YUBILEINY 30 Jun 06:18:38 06:19:17 10° 50° (NE) 06:19:56 435.215
DOVE 4 30 Jun 06:21:37 06:26:40 76° 102° (ESE) 06:31:54 437.250
NUDT-PHONESAT 30 Jun 06:22:35 06:25:32 22° 95° (E) 06:28:28 437.300
HO-68 30 Jun 06:33:31 06:36:50 13° 87° (E) 06:40:07 435.675
O/OREOS (USA 219) 30 Jun 06:37:45 06:42:14 83° 246° (WSW) 06:46:42 437.305
XW-2F 30 Jun 06:53:54 06:57:39 72° 101° (ESE) 07:01:21 145.980 - 146.000
XW-2D 30 Jun 07:01:37 07:05:23 83° 283° (WNW) 07:09:07 145.860 - 145.880
XW-2B 30 Jun 07:10:48 07:14:33 66° 285° (WNW) 07:18:16 145.730 - 145.750
CUTE-I 30 Jun 07:12:04 07:17:30 82° 104° (ESE) 07:22:53 437.470
LilacSat-2 30 Jun 07:16:25 07:20:07 52° 286° (WNW) 07:23:46 437.200
XW-2A 30 Jun 07:25:19 07:27:20 15° 93° (E) 07:29:20 145.665 - 145.685
XW-2C 30 Jun 07:26:44 07:30:17 41° 288° (WNW) 07:33:49 145.795 - 145.815
KAITUO 1B 30 Jun 07:27:45 07:31:21 51° 287° (WNW) 07:34:56 145.475/437.950
FO-29 30 Jun 07:35:26 07:38:05 13° 48° (NE) 07:40:52 435.910
ISS 30 Jun 07:37:25 07:40:40 69° 329° (NNW) 07:43:57 437.550
STRAND 1 30 Jun 07:37:26 07:42:31 61° 259° (WSW) 07:47:39 437.568
CUBEBUG 2 30 Jun 07:49:18 07:53:14 26° 94° (E) 07:57:03 437.445
SEEDS 30 Jun 07:52:16 07:56:02 32° 97° (E) 07:59:46 437.485
Tancredo 1 30 Jun 07:52:22 07:55:05 29° 339° (NNW) 07:57:49 437.200
NUDT-PHONESAT 30 Jun 07:56:21 07:59:23 24° 291° (WNW) 08:02:23 437.300
DOVE 4 30 Jun 08:00:55 08:03:47 15° 298° (WNW) 08:06:42 437.250
YUBILEINY 30 Jun 08:10:06 08:18:41 51° 75° (ENE) 08:27:08 435.215
UWE-3 30 Jun 08:11:59 08:15:49 26° 94° (E) 08:19:33 435.000/436.395/437.385
RS-15 30 Jun 08:12:00 08:18:10 16° 266° (W) 08:24:13 29.354- 29.394
HO-68 30 Jun 08:18:25 08:25:39 79° 105° (ESE) 08:32:48 435.675
CUTE 1.7 + AOD 2 30 Jun 08:19:35 08:23:47 77° 284° (WNW) 08:27:59 437.475
M-CUBED/EXP-1 PRIME 30 Jun 08:23:03 08:25:09 16° 61° (ENE) 08:27:16 437.505
AAUSAT CUBESAT 2 30 Jun 08:27:21 08:31:12 36° 98° (E) 08:35:00 437.432
UNISAT 6 30 Jun 08:28:03 08:30:19 14° 60° (ENE) 08:32:35 437.425
AO-73 30 Jun 08:52:40 08:56:43 35° 97° (E) 09:00:38 145.935
CUTE-I 30 Jun 08:53:49 08:56:50 15° 302° (WNW) 08:59:51 437.470
XW-2A 30 Jun 08:57:08 09:00:09 30° 289° (WNW) 09:03:08 145.665 - 145.685
PRISM 30 Jun 09:11:29 09:15:03 31° 69° (ENE) 09:18:38 437.425
Oscar 11 30 Jun 09:13:16 09:17:25 45° 99° (E) 09:21:31 .
ISS 30 Jun 09:14:58 09:17:36 21° 348° (NNW) 09:20:13 437.550
FO-29 30 Jun 09:15:15 09:21:29 60° 70° (ENE) 09:28:33 435.910
TIGRISAT 30 Jun 09:18:27 09:22:43 37° 70° (ENE) 09:27:02 435.000
CUBEBUG 2 30 Jun 09:25:41 09:29:51 33° 291° (WNW) 09:33:54 437.445
SEEDS 30 Jun 09:28:18 09:31:32 22° 293° (WNW) 09:34:46 437.485
Tancredo 1 30 Jun 09:29:19 09:31:20 16° 358° (N) 09:33:21 437.200
ZACube-1 30 Jun 09:30:42 09:35:09 79° 283° (WNW) 09:39:27 437.345
UWE-3 30 Jun 09:48:16 09:52:15 31° 292° (WNW) 09:56:09 435.000/436.395/437.385
M-CUBED/EXP-1 PRIME 30 Jun 09:56:37 09:59:27 27° 258° (WSW) 10:02:18 437.505
UNISAT 6 30 Jun 10:01:44 10:06:22 75° 258° (WSW) 10:11:06 437.425
AAUSAT CUBESAT 2 30 Jun 10:03:25 10:06:24 20° 294° (WNW) 10:09:22 437.432
HO-68 30 Jun 10:07:18 10:12:36 23° 304° (NW) 10:17:54 435.675
YUBILEINY 30 Jun 10:07:22 10:15:11 37° 275° (W) 10:22:56 435.215
AIST 2D 30 Jun 10:16:50 10:19:10 17° 67° (ENE) 10:21:29 435.315
EO-88 30 Jun 10:20:31 10:24:01 42° 99° (E) 10:27:28 145.990 - 145.960
EO-79 30 Jun 10:22:33 10:24:19 12° 61° (ENE) 10:26:04 145.935-145.965
AO-73 30 Jun 10:29:19 10:32:43 22° 294° (WNW) 10:36:03 145.935
DUCHIFAT 1 30 Jun 10:30:09 10:31:46 12° 61° (ENE) 10:33:22 145.980
PCSat 30 Jun 10:34:06 10:39:02 37° 111° (ESE) 10:44:00 145.827
NANOSAT C BR1 30 Jun 10:40:22 10:43:08 17° 64° (ENE) 10:45:55 145.865
DELFI C3 30 Jun 10:40:31 10:44:28 69° 285° (WNW) 10:48:23 145.870
PRISM 30 Jun 10:47:13 10:50:21 22° 265° (W) 10:53:32 437.425
Oscar 11 30 Jun 10:50:18 10:53:12 18° 296° (WNW) 10:56:05 .
ISS 30 Jun 10:52:23 10:54:54 20° 9° (N) 10:57:25 437.550
TIGRISAT 30 Jun 10:55:44 10:59:28 24° 267° (W) 11:03:17 435.000
FO-29 30 Jun 11:01:57 11:07:05 25° 271° (W) 11:12:44 435.910
Tancredo 1 30 Jun 11:05:02 11:07:38 25° 18° (NNE) 11:10:13 437.200
BUGSAT 1 30 Jun 11:18:25 11:20:03 12° 61° (ENE) 11:21:41 437.445
POLYITAN 1 30 Jun 11:21:38 11:25:46 50° 72° (ENE) 11:29:56 437.675
